Location: ????????
(55.6333°N, 37.7000°E)
Time: 15:09:36
(UTC+00:00)

NOSS 2-2 (D) - Pass Details

Date: 19 May 2025
Orbit: 390 x 1715 km, 63.3° (Epoch: 21 June)

Event Time Altitude Azimuth Distance (km) Brightness Sun altitude
Rises 22:08:54 0° 308° (NW) 2,402 7.0 -13.8°
Reaches altitude 10° 22:10:47 10° 312° (NW) 1,611 6.1 -13.8°
Maximum altitude 22:14:15 60° 33° (NNE) 619 3.8 -13.7°
Drops below altitude 10° 22:18:48 10° 115° (ESE) 2,109 6.2 -13.6°
Sets 22:21:35 0° 118° (ESE) 3,243 7.1 -13.5°
